AKJ1803 VISR-VIDP

Flight info

Callsign AKJ1803
Flight time 1h 8m
Altitude 36000
Route SGR W24 PKT Z1 ASARI/N0448F350 J24 MUPID MUPID6L
Aircraft B38M/M-SDE1FGHILORVWXY/HB1

Departure

Time 2026-04-23 03:50
Airport Sheikh ul Alam International Airport (VISR)

Arrival

Time 2026-04-23 04:58
Airport Indira Gandhi International Airport (VIDP)
Time Latitude Longitude Altitude Speed Heading
2026-04-23 03:21 34.00137 74.76125 5416 ft 0 kts 54°
2026-04-23 03:40 34.00134 74.76120 5416 ft 2 kts 54°
2026-04-23 03:41 34.00125 74.76105 5416 ft 2 kts 54°
2026-04-23 03:41 34.00117 74.76090 5416 ft 2 kts 54°
2026-04-23 03:41 34.00108 74.76076 5416 ft 2 kts 54°
2026-04-23 03:41 34.00101 74.76061 5416 ft 2 kts 92°
2026-04-23 03:42 34.00108 74.76045 5415 ft 2 kts 147°
2026-04-23 03:42 34.00122 74.76040 5414 ft 2 kts 164°
2026-04-23 03:42 34.00135 74.76033 5414 ft 1 kts 156°
2026-04-23 03:42 34.00140 74.76031 5413 ft 0 kts 159°
2026-04-23 03:46 34.00135 74.76033 5413 ft 2 kts 159°
2026-04-23 03:46 34.00111 74.76045 5415 ft 4 kts 158°
2026-04-23 03:46 34.00090 74.76055 5416 ft 3 kts 158°
2026-04-23 03:47 34.00057 74.76071 5417 ft 7 kts 158°
2026-04-23 03:47 33.99994 74.76074 5418 ft 10 kts 189°
2026-04-23 03:47 33.99956 74.76067 5420 ft 0 kts 191°
2026-04-23 03:47 33.99956 74.76066 5420 ft 0 kts 191°
2026-04-23 03:48 33.99953 74.76066 5420 ft 2 kts 191°
2026-04-23 03:48 33.99907 74.76055 5421 ft 7 kts 191°
2026-04-23 03:48 33.99858 74.76059 5421 ft 8 kts 151°
2026-04-23 03:48 33.99823 74.76096 5422 ft 5 kts 135°
2026-04-23 03:49 33.99822 74.76098 5422 ft 0 kts 135°
2026-04-23 03:49 33.99804 74.76119 5422 ft 16 kts 136°
2026-04-23 03:49 33.99564 74.76397 5423 ft 78 kts 136°
2026-04-23 03:49 33.99038 74.77008 5436 ft 130 kts 135°
2026-04-23 03:50 33.98268 74.77903 5458 ft 173 kts 136°
2026-04-23 03:50 33.97366 74.78959 5786 ft 184 kts 136°
2026-04-23 03:50 33.96475 74.80087 6240 ft 195 kts 124°
2026-04-23 03:50 33.96122 74.81670 6579 ft 207 kts 82°
2026-04-23 03:51 33.96795 74.83246 6719 ft 223 kts 40°
2026-04-23 03:51 33.98258 74.83938 6828 ft 241 kts 359°
2026-04-23 03:51 33.99862 74.83343 7025 ft 254 kts 322°
2026-04-23 03:51 34.00943 74.81607 7210 ft 268 kts 289°
2026-04-23 03:52 34.01270 74.79364 7431 ft 281 kts 264°
2026-04-23 03:52 34.00583 74.77200 7815 ft 285 kts 230°
2026-04-23 03:52 33.99009 74.75794 8278 ft 287 kts 198°
2026-04-23 03:52 33.97012 74.75632 8791 ft 292 kts 164°
2026-04-23 03:53 33.95267 74.76793 9514 ft 290 kts 135°
2026-04-23 03:53 33.93845 74.78504 10141 ft 295 kts 136°
2026-04-23 03:53 33.92278 74.80155 10544 ft 309 kts 140°
2026-04-23 03:53 33.90570 74.81811 10938 ft 324 kts 141°
2026-04-23 03:54 33.88768 74.83562 11301 ft 339 kts 140°
2026-04-23 03:54 33.86924 74.85397 11723 ft 351 kts 139°
2026-04-23 03:54 33.85062 74.87288 12389 ft 355 kts 139°
2026-04-23 03:54 33.83196 74.89201 13119 ft 357 kts 139°
2026-04-23 03:55 33.81294 74.91156 13817 ft 361 kts 139°
2026-04-23 03:55 33.79375 74.93130 14551 ft 365 kts 140°
2026-04-23 03:55 33.77471 74.95085 15212 ft 370 kts 140°
2026-04-23 03:55 33.75511 74.97096 15999 ft 372 kts 140°
2026-04-23 03:56 33.73544 74.99112 16630 ft 378 kts 140°
2026-04-23 03:56 33.71544 75.01160 17357 ft 382 kts 141°
2026-04-23 03:56 33.69484 75.03266 18037 ft 386 kts 141°
2026-04-23 03:56 33.67440 75.05353 18709 ft 390 kts 141°
2026-04-23 03:57 33.65386 75.07452 19322 ft 395 kts 141°
2026-04-23 03:57 33.63288 75.09594 19947 ft 399 kts 141°
2026-04-23 03:57 33.61166 75.11759 20577 ft 403 kts 141°
2026-04-23 03:57 33.59023 75.13948 21197 ft 407 kts 141°
2026-04-23 03:58 33.56854 75.16160 21770 ft 411 kts 141°
2026-04-23 03:58 33.54699 75.18355 22353 ft 415 kts 141°
2026-04-23 03:58 33.52436 75.20570 22944 ft 418 kts 144°
2026-04-23 03:58 33.50021 75.22547 23506 ft 420 kts 152°
2026-04-23 03:59 33.47390 75.24029 24074 ft 421 kts 160°
2026-04-23 03:59 33.44608 75.25149 24640 ft 424 kts 165°
2026-04-23 03:59 33.41784 75.26096 25162 ft 427 kts 166°
2026-04-23 03:59 33.38890 75.26988 25684 ft 430 kts 167°
2026-04-23 04:00 33.35966 75.27866 26179 ft 434 kts 167°
2026-04-23 04:00 33.33024 75.28751 26703 ft 437 kts 167°
2026-04-23 04:00 33.30084 75.29648 27159 ft 441 kts 167°
2026-04-23 04:00 33.27075 75.30579 27681 ft 444 kts 167°
2026-04-23 04:01 33.24096 75.31509 28135 ft 447 kts 166°
2026-04-23 04:01 33.21088 75.32455 28594 ft 450 kts 166°
2026-04-23 04:01 33.18028 75.33422 29093 ft 453 kts 166°
2026-04-23 04:01 33.14965 75.34395 29538 ft 456 kts 166°
2026-04-23 04:02 33.11936 75.35359 30035 ft 457 kts 166°
2026-04-23 04:02 33.08878 75.36334 30788 ft 453 kts 166°
2026-04-23 04:02 33.05806 75.37313 31387 ft 452 kts 166°
2026-04-23 04:02 33.02792 75.38272 31964 ft 450 kts 166°
2026-04-23 04:03 32.99756 75.39236 32495 ft 449 kts 166°
2026-04-23 04:03 32.96752 75.40187 33066 ft 447 kts 166°
2026-04-23 04:03 32.93776 75.41129 33575 ft 446 kts 166°
2026-04-23 04:03 32.90773 75.42082 34114 ft 444 kts 166°
2026-04-23 04:04 32.88029 75.42952 34630 ft 443 kts 166°
2026-04-23 04:04 32.84992 75.43915 35145 ft 441 kts 166°
2026-04-23 04:04 32.82310 75.44764 35606 ft 440 kts 166°
2026-04-23 04:04 32.79569 75.45631 36075 ft 438 kts 166°
2026-04-23 04:05 32.76388 75.46635 36228 ft 443 kts 166°
2026-04-23 04:05 32.73414 75.47571 36206 ft 450 kts 167°
2026-04-23 04:05 32.67351 75.49481 36163 ft 452 kts 166°
2026-04-23 04:06 32.61365 75.51376 36139 ft 451 kts 166°
2026-04-23 04:06 32.55315 75.53286 36064 ft 451 kts 166°
2026-04-23 04:07 32.49300 75.55183 36023 ft 452 kts 166°
2026-04-23 04:07 32.43335 75.57061 35997 ft 452 kts 166°
2026-04-23 04:08 32.37221 75.58982 35965 ft 452 kts 166°
2026-04-23 04:08 32.31159 75.60883 35929 ft 452 kts 166°
2026-04-23 04:09 32.25064 75.62568 35894 ft 451 kts 173°
2026-04-23 04:09 32.21985 75.62770 35891 ft 448 kts 184°
2026-04-23 04:09 32.18949 75.62259 35907 ft 447 kts 193°
2026-04-23 04:10 32.12931 75.60332 35875 ft 449 kts 198°
2026-04-23 04:10 32.07052 75.58171 35861 ft 447 kts 198°
2026-04-23 04:11 32.01121 75.55985 35838 ft 448 kts 198°
2026-04-23 04:11 31.95200 75.53840 35839 ft 449 kts 197°
2026-04-23 04:12 31.89320 75.51740 35831 ft 448 kts 197°
2026-04-23 04:13 31.77922 75.47867 35826 ft 449 kts 196°
2026-04-23 04:13 31.71939 75.45901 35823 ft 448 kts 196°
2026-04-23 04:14 31.65936 75.43926 35821 ft 449 kts 196°
2026-04-23 04:14 31.59951 75.41953 35817 ft 449 kts 196°
2026-04-23 04:15 31.53937 75.39969 35815 ft 449 kts 197°
2026-04-23 04:16 31.44986 75.37019 35814 ft 449 kts 196°
2026-04-23 04:16 31.38946 75.35027 35815 ft 449 kts 196°
2026-04-23 04:17 31.32966 75.33059 35818 ft 449 kts 196°
2026-04-23 04:17 31.26930 75.31078 35813 ft 449 kts 196°
2026-04-23 04:18 31.20963 75.29121 35812 ft 450 kts 196°
2026-04-23 04:18 31.14925 75.27142 35813 ft 450 kts 196°
2026-04-23 04:19 31.08932 75.25181 35811 ft 449 kts 197°
2026-04-23 04:19 31.02949 75.23224 35811 ft 449 kts 197°
2026-04-23 04:20 30.96989 75.21278 35808 ft 450 kts 197°
2026-04-23 04:20 30.90955 75.19309 35812 ft 450 kts 196°
2026-04-23 04:21 30.85000 75.17911 35807 ft 452 kts 184°
2026-04-23 04:21 30.82116 75.18007 35650 ft 449 kts 173°
2026-04-23 04:21 30.79278 75.18705 35376 ft 442 kts 163°
2026-04-23 04:22 30.73187 75.21909 34828 ft 437 kts 150°
2026-04-23 04:22 30.68067 75.25927 34824 ft 445 kts 144°
2026-04-23 04:23 30.63124 75.30221 34829 ft 443 kts 143°
2026-04-23 04:23 30.58207 75.34503 34830 ft 445 kts 144°
2026-04-23 04:24 30.53236 75.38751 34829 ft 459 kts 144°
2026-04-23 04:24 30.48099 75.43091 34828 ft 459 kts 144°
2026-04-23 04:25 30.42995 75.47385 34830 ft 458 kts 144°
2026-04-23 04:25 30.37871 75.51684 34833 ft 459 kts 144°
2026-04-23 04:26 30.32756 75.55968 34833 ft 459 kts 144°
2026-04-23 04:26 30.27627 75.60258 34833 ft 460 kts 144°
2026-04-23 04:27 30.22507 75.64535 34832 ft 460 kts 144°
2026-04-23 04:27 30.17564 75.68660 34832 ft 460 kts 145°
2026-04-23 04:28 30.09791 75.75137 34828 ft 460 kts 145°
2026-04-23 04:28 30.04654 75.79410 34822 ft 459 kts 145°
2026-04-23 04:29 29.99470 75.83716 34820 ft 460 kts 145°
2026-04-23 04:29 29.94297 75.88008 34820 ft 460 kts 145°
2026-04-23 04:30 29.89213 75.92220 34821 ft 461 kts 145°
2026-04-23 04:30 29.84040 75.96498 34821 ft 457 kts 145°
2026-04-23 04:31 29.81644 75.98483 34785 ft 444 kts 145°
2026-04-23 04:31 29.79109 76.00604 34481 ft 437 kts 145°
2026-04-23 04:31 29.76648 76.02686 34050 ft 433 kts 144°
2026-04-23 04:31 29.74270 76.04707 33547 ft 430 kts 144°
2026-04-23 04:32 29.71869 76.06748 33061 ft 428 kts 144°
2026-04-23 04:32 29.69485 76.08772 32557 ft 426 kts 144°
2026-04-23 04:32 29.67129 76.10767 32051 ft 425 kts 144°
2026-04-23 04:32 29.64760 76.12771 31545 ft 423 kts 144°
2026-04-23 04:33 29.62391 76.14774 31039 ft 421 kts 144°
2026-04-23 04:33 29.60069 76.16734 30543 ft 419 kts 144°
2026-04-23 04:33 29.57706 76.18728 30029 ft 418 kts 144°
2026-04-23 04:33 29.55373 76.20695 29527 ft 416 kts 144°
2026-04-23 04:34 29.53051 76.22652 29028 ft 415 kts 144°
2026-04-23 04:34 29.50734 76.24603 28527 ft 413 kts 144°
2026-04-23 04:34 29.48420 76.26550 28026 ft 412 kts 144°
2026-04-23 04:34 29.46092 76.28506 27517 ft 410 kts 145°
2026-04-23 04:35 29.43786 76.30442 27008 ft 409 kts 145°
2026-04-23 04:35 29.41492 76.32369 26502 ft 407 kts 145°
2026-04-23 04:35 29.39206 76.34287 26002 ft 406 kts 145°
2026-04-23 04:35 29.36933 76.36192 25508 ft 404 kts 145°
2026-04-23 04:36 29.34674 76.38084 25009 ft 403 kts 145°
2026-04-23 04:36 29.32400 76.39990 24506 ft 401 kts 145°
2026-04-23 04:36 29.30152 76.41871 23991 ft 400 kts 145°
2026-04-23 04:36 29.27933 76.43729 23489 ft 398 kts 145°
2026-04-23 04:37 29.25708 76.45589 22997 ft 395 kts 145°
2026-04-23 04:37 29.23492 76.47443 22506 ft 393 kts 144°
2026-04-23 04:37 29.21302 76.49273 22024 ft 389 kts 145°
2026-04-23 04:37 29.19105 76.51109 21533 ft 386 kts 145°
2026-04-23 04:38 29.16929 76.52925 21055 ft 383 kts 145°
2026-04-23 04:38 29.14767 76.54729 20576 ft 380 kts 145°
2026-04-23 04:38 29.12650 76.56494 20106 ft 377 kts 145°
2026-04-23 04:38 29.10544 76.58249 19634 ft 374 kts 145°
2026-04-23 04:39 29.08439 76.60002 19168 ft 371 kts 145°
2026-04-23 04:39 29.06361 76.61731 18706 ft 368 kts 145°
2026-04-23 04:39 29.04302 76.63444 18250 ft 365 kts 145°
2026-04-23 04:39 29.02250 76.65151 17801 ft 361 kts 146°
2026-04-23 04:40 29.00241 76.66823 17349 ft 359 kts 146°
2026-04-23 04:40 28.98293 76.68443 16923 ft 356 kts 145°
2026-04-23 04:40 28.96309 76.70091 16487 ft 353 kts 145°
2026-04-23 04:40 28.94349 76.71719 16047 ft 350 kts 145°
2026-04-23 04:41 28.92372 76.73358 15612 ft 348 kts 145°
2026-04-23 04:41 28.90429 76.74968 15180 ft 345 kts 145°
2026-04-23 04:41 28.88542 76.76531 14765 ft 343 kts 145°
2026-04-23 04:41 28.86670 76.78082 14351 ft 340 kts 144°
2026-04-23 04:42 28.84877 76.79566 13952 ft 338 kts 144°
2026-04-23 04:42 28.82912 76.81142 13521 ft 336 kts 147°
2026-04-23 04:42 28.80895 76.82488 13101 ft 333 kts 154°
2026-04-23 04:42 28.78763 76.83554 12691 ft 331 kts 159°
2026-04-23 04:43 28.76616 76.84461 12274 ft 329 kts 160°
2026-04-23 04:43 28.74476 76.85326 11868 ft 328 kts 160°
2026-04-23 04:43 28.72323 76.86206 11445 ft 326 kts 160°
2026-04-23 04:43 28.70205 76.87093 11037 ft 324 kts 159°
2026-04-23 04:44 28.68075 76.88000 10636 ft 323 kts 159°
2026-04-23 04:44 28.65960 76.88911 10225 ft 322 kts 159°
2026-04-23 04:44 28.63902 76.89803 9980 ft 315 kts 159°
2026-04-23 04:44 28.61862 76.90685 9853 ft 304 kts 159°
2026-04-23 04:45 28.59925 76.91488 9838 ft 289 kts 160°
2026-04-23 04:45 28.58039 76.92239 9838 ft 279 kts 160°
2026-04-23 04:45 28.56205 76.92963 9859 ft 281 kts 160°
2026-04-23 04:45 28.54347 76.93697 9865 ft 281 kts 160°
2026-04-23 04:46 28.52492 76.94434 9831 ft 280 kts 160°
2026-04-23 04:46 28.50654 76.95167 9876 ft 281 kts 160°
2026-04-23 04:46 28.48813 76.95977 9869 ft 280 kts 153°
2026-04-23 04:46 28.47234 76.97203 9856 ft 279 kts 130°
2026-04-23 04:47 28.46294 76.99089 9749 ft 272 kts 105°
2026-04-23 04:47 28.45845 77.01180 9376 ft 273 kts 99°
2026-04-23 04:47 28.45481 77.03280 9134 ft 267 kts 100°
2026-04-23 04:47 28.45104 77.05287 8978 ft 260 kts 101°
2026-04-23 04:48 28.44697 77.07269 8801 ft 254 kts 102°
2026-04-23 04:48 28.44285 77.09194 8559 ft 250 kts 102°
2026-04-23 04:48 28.43871 77.11111 8255 ft 249 kts 102°
2026-04-23 04:48 28.43468 77.12985 7990 ft 247 kts 102°
2026-04-23 04:49 28.43056 77.14898 7676 ft 249 kts 102°
2026-04-23 04:49 28.42643 77.16814 7371 ft 249 kts 102°
2026-04-23 04:49 28.42232 77.18719 7144 ft 244 kts 103°
2026-04-23 04:49 28.41837 77.20545 7066 ft 240 kts 103°
2026-04-23 04:50 28.41430 77.22430 6995 ft 249 kts 103°
2026-04-23 04:50 28.41022 77.24316 6821 ft 245 kts 102°
2026-04-23 04:50 28.40772 77.26211 6645 ft 238 kts 88°
2026-04-23 04:50 28.41160 77.28003 6505 ft 243 kts 56°
2026-04-23 04:51 28.42362 77.29322 6259 ft 243 kts 25°
2026-04-23 04:51 28.43908 77.30073 5978 ft 239 kts 19°
2026-04-23 04:51 28.45449 77.30740 5698 ft 237 kts 19°
2026-04-23 04:51 28.46947 77.31413 5314 ft 241 kts 20°
2026-04-23 04:52 28.48527 77.32137 4729 ft 248 kts 20°
2026-04-23 04:52 28.50117 77.32871 4144 ft 252 kts 20°
2026-04-23 04:52 28.51738 77.33594 3754 ft 245 kts 16°
2026-04-23 04:52 28.53304 77.33983 3381 ft 238 kts 357°
2026-04-23 04:53 28.54859 77.33497 2745 ft 239 kts 322°
2026-04-23 04:53 28.55942 77.32162 2458 ft 225 kts 299°
2026-04-23 04:53 28.56553 77.30666 2402 ft 205 kts 284°
2026-04-23 04:53 28.56620 77.29198 2433 ft 186 kts 264°
2026-04-23 04:54 28.56519 77.27763 2421 ft 178 kts 273°
2026-04-23 04:54 28.56620 77.26376 2429 ft 177 kts 274°
2026-04-23 04:54 28.56679 77.25015 2429 ft 177 kts 271°
2026-04-23 04:54 28.56703 77.23655 2423 ft 176 kts 271°
2026-04-23 04:55 28.56731 77.22353 2409 ft 163 kts 272°
2026-04-23 04:55 28.56765 77.21102 2442 ft 157 kts 272°
2026-04-23 04:55 28.56795 77.19860 2140 ft 157 kts 271°
2026-04-23 04:55 28.56822 77.18681 1961 ft 154 kts 271°
2026-04-23 04:56 28.56849 77.17580 1799 ft 156 kts 271°
2026-04-23 04:56 28.56880 77.16366 1590 ft 152 kts 270°
2026-04-23 04:56 28.56906 77.15151 1402 ft 154 kts 270°
2026-04-23 04:56 28.56937 77.13947 1209 ft 154 kts 271°
2026-04-23 04:57 28.56968 77.12788 1015 ft 153 kts 270°
2026-04-23 04:57 28.56994 77.11587 834 ft 155 kts 270°
2026-04-23 04:57 28.57013 77.10701 781 ft 143 kts 271°
2026-04-23 04:58 28.56957 77.09215 780 ft 9 kts 238°
2026-04-23 04:58 28.56903 77.09206 780 ft 11 kts 132°
2026-04-23 04:59 28.56889 77.09296 780 ft 11 kts 90°
2026-04-23 04:59 28.56886 77.09380 780 ft 10 kts 91°
2026-04-23 04:59 28.56884 77.09484 780 ft 17 kts 91°
2026-04-23 04:59 28.56881 77.09647 780 ft 21 kts 91°
2026-04-23 05:00 28.56877 77.09811 780 ft 20 kts 91°
2026-04-23 05:00 28.56873 77.09967 780 ft 19 kts 91°
2026-04-23 05:00 28.56869 77.10134 780 ft 21 kts 91°
2026-04-23 05:00 28.56865 77.10295 780 ft 20 kts 91°
2026-04-23 05:01 28.56862 77.10450 780 ft 19 kts 91°
2026-04-23 05:01 28.56858 77.10609 780 ft 20 kts 91°
2026-04-23 05:01 28.56856 77.10762 780 ft 18 kts 91°
2026-04-23 05:01 28.56851 77.10906 780 ft 18 kts 92°
2026-04-23 05:02 28.56848 77.11058 780 ft 19 kts 91°
2026-04-23 05:02 28.56844 77.11206 780 ft 18 kts 91°
2026-04-23 05:02 28.56841 77.11343 780 ft 17 kts 92°
2026-04-23 05:02 28.56826 77.11408 780 ft 5 kts 170°
2026-04-23 05:03 28.56768 77.11391 780 ft 10 kts 197°
2026-04-23 05:03 28.56704 77.11372 780 ft 8 kts 193°
2026-04-23 05:03 28.56667 77.11410 780 ft 10 kts 104°
2026-04-23 05:03 28.56647 77.11504 780 ft 12 kts 104°
2026-04-23 05:04 28.56638 77.11543 780 ft 0 kts 128°
2026-04-23 05:04 28.56625 77.11542 780 ft 3 kts 192°
2026-04-23 05:04 28.56605 77.11536 780 ft 2 kts 193°
2026-04-23 05:04 28.56592 77.11533 780 ft 0 kts 193°
2026-04-23 05:05 28.56588 77.11532 780 ft 0 kts 193°